Location: Caracas
(10.4880°N, 66.8792°W)
Time: 09:46:21
(UTC+00:00)

Daily predictions for brighter satellites

Satellite Brightness Start Highest point End
(mag) Time Altitude Azimuth Time Altitude Azimuth Time Altitude Azimuth
Cosmos 1464 Rocket 4.2 23:04:13 10° N 23:10:23 79° W 23:16:30 10° S
IUS-13 SRM-1 3.7 23:06:57 10° NW 23:10:26 71° NNE 23:26:55 10° ESE
H-2A R/B 2.3 23:07:48 10° SSE 23:11:48 88° ENE 23:15:39 10° NNW
Ariane H10-3 4.4 13:11:47 10° W 23:15:12 60° S 23:22:35 10° ESE
Cosmos-2242 3.5 23:13:35 10° NNE 23:17:31 38° E 23:21:28 10° SSE
Cosmos 1825 2.1 23:14:51 10° S 23:18:33 67° E 23:22:14 10° N
Cosmos 1892 4.3 23:15:06 10° SSW 23:18:39 39° W 23:22:11 10° NNW
Centaur AC-42 3.5 23:05:00 10° WSW 23:19:38 40° S 23:23:48 10° E
CZ-2C R/B 4.4 23:16:02 10° N 23:20:43 36° WNW 23:25:27 10° SW
CZ-4B R/B 2.7 23:17:46 10° N 23:20:54 43° WNW 23:23:59 10° SSW
Cosmos 1697 Rocket 4.5 23:20:16 10° NE 23:22:35 13° ENE 23:24:54 10° E
Cosmos 2082 Rocket 3.1 23:18:54 10° SSW 23:24:21 55° WNW 23:29:51 10° N
Cosmos 1869 4.0 23:21:22 10° NNE 23:24:47 31° E 23:28:13 10° SSE
Cosmos 1437 Rocket 4.0 23:22:16 10° NNE 23:25:32 24° E 23:28:50 10° SE
Cosmos 1656 4.1 23:26:45 10° N 23:31:53 39° ENE 23:36:49 11° SE
NOSS 3-2 (A) 4.4 23:24:02 10° NNW 23:32:37 82° WSW 23:41:28 10° SSE
Cosmos 2084 3.4 23:34:31 10° S 23:38:26 50° ESE 23:42:18 10° NE
YAOGAN 1 2.5 23:38:21 10° SSE 23:42:39 88° WSW 23:46:59 10° NNW
ARIANE 5 R/B 2.6 23:44:24 10° S 23:44:30 10° S 23:44:30 10° S
Cosmos 158 Rocket 3.9 23:41:25 10° S 23:46:18 58° E 23:51:20 10° NNE
ASTRO E2 2.5 23:45:46 10° SW 23:49:42 79° SSE 23:52:45 16° ENE
Cosmos 2221 4.2 23:47:21 10° NE 23:49:27 16° ENE 23:49:27 16° ENE
ERS-2 4.4 23:51:12 10° NE 23:51:26 11° NE 23:51:26 11° NE
NOSS 2-1 (C) 3.3 23:50:46 10° SSW 23:55:34 63° ESE 23:59:11 10° NNE
